Find Starlink 33880

NORAD ID: 63686 Int'l Des: 2025-085 Owner: SPXS Country: US Constellation: starlink operational
LEOCIRCULAR

Current View

Loading 3D Globe...

About Starlink 33880

Description loading...

Upcoming Passes

Passes for default location (London). Set your location on the main map for personalized predictions.

Altitude History

Loading altitude history...

Two-Line Element Set

1 63686U 25085Y 26150.78889910 .00025969 00000-0 94847-3 0 9999
2 63686 43.0000 287.4599 0001197 240.0048 120.0684 15.27628915 61530
Epoch: May 30, 2026 • Age: 13 hours

Current Status

Altitude 486.5 km
Velocity 7.63 km/s
Sub-Earth Point 42.02°N, 7.87°W
Launch Date Apr 28, 2025
Age 1 years
Type internet

Technical Details

Classification Payload
Mass 575.00 kg
Dry Mass 530.00 kg
Total Mass 575.00 kg
Length 0.30 m
Diameter 4.10 m
Span 29.00 m
Shape Box + pan
Manufacturer SPXS
Bus Type Starlink V2MO
Phase Status In Orbit
Owner/State SPXS/US

Most Searched